星链-3056 (STARLINK-3056 )

导读

STARLINK-3056是美国太空探索技术公司(SpaceX)星链星座的成员,于2021年9月14日发射升空。星链计划旨在构建全球卫星互联网星座,为全球提供宽带互联网服务,该卫星承担着扩大星链网络覆盖、提升服务容量的任务,是星链组网进程中的重要节点。

基本信息
目录编号:
49159
目录名称:
STARLINK-3056
国际标识:
2021-082AF
轨道中心:
EARTH
卫星名称:
星链-3056
卫星全名:
星链-3056 (STARLINK-3056 )
卫星状态:
在轨 (已飞行1816 天)
发射日期:
2021-09-14 UTC
国别 :
美国 (US)
星等 :
--
轨道信息
数据来源 国际轨道数据
星历时间: 2026-09-04T22:32:08+0800
6小时前
查看轨道信息
半长轴: 6950.203km
偏心率: 0.0003189
轨道倾角: 70.000°
近地点辐角 271.961°
升交点赤经 203.343°
平近点角 88.118°
近地点: 569.849km
远地点: 574.283km
周期: 96.107分钟
每日圈数: 14.983269
详细信息
固有亮度:
5
最大亮度:
2.5
卫星平台:
Starlink v1.5
覆盖范围:
全球
运营商:
太空探索技术公司
运营商所在国:
美国
制造商(研发单位):
太空探索技术公司
制造商所在国:
美国
使用方式:
暂无
卫星简介
星链(Starlink)计划是由太空探索技术公司(SpaceX)提出的一个巨型低轨卫星互联网星座项目,计划在2019年至2024年间在太空搭建由约1.2万颗卫星组成的“星链”网络,其中1584颗将部署在地球上空550千米处的近地轨道,并从2020年开始工作。该卫星仍在工作。
2D轨道图
3D轨道图
轨道高度分析图
轨道倾角分析图
轨道综合分析图
查看轨道综合分析图
交会数据列表
事件ID 空间交会对象 最接近时刻(TCA) 交会距离 交会风险概率(CRP) 交会风险指数(CRI) 操作
CDM_260905-173204-915906-978921
2026-09-05T
17:32:05+0000
1.320 km
极远距离
7.591692E-6 低风险 0.53